Meteo Giornale » Osservazioni meteo Italia » Bologna-Borgo Panigale

ore: 18:50 - Osservazioni Meteo Bologna-Borgo Panigale
Lat. 44° 32' N Lon. 11° 18' E Alt. 36 metri s.l.m.

poco_nuvoloso Europe/Rome

31 °C

Poco Nuvoloso

Temp. 24 Ore

19 °C

33 °C

Nord/NOvest

7.4 Km/h

Dew point 18 °C

Umidità 45 %

Visibilità  10 Km

Il sole sorge alle ore 05:28

Il sole tramonta alle ore 21:05

Data e Ora Cielo e Fenomeni T °C DP °C Um. % Pres. hPa Vis. km Vento km/h
Oggi h: 18:50 poco_nuvoloso Poco Nuvoloso 31 18 45 1012 10 N/NO 7.4
Oggi h: 17:50 poco_nuvoloso Poco Nuvoloso 32 16 38 1012 10 N 9.3
Oggi h: 17:20 poco_nuvoloso Poco Nuvoloso 32 17 40 1013 10 N/NO 7.4
Oggi h: 16:50 poco_nuvoloso Poco Nuvoloso 32 15 35 1013 10 N/NO 7.4
Oggi h: 16:20 poco_nuvoloso Poco Nuvoloso 33 17 38 1013 10 N 5.5
Oggi h: 15:50 poco_nuvoloso Poco Nuvoloso 32 16 38 1014 10 N 5.5
Oggi h: 15:20 poco_nuvoloso Poco Nuvoloso 32 18 43 1014 10 N 5.5
Oggi h: 14:50 sereno Sereno 32 16 38 1015 10 N 7.4
Oggi h: 14:20 sereno Sereno 32 16 38 1015 10 N 3.7
Oggi h: 13:50 sereno Sereno 31 14 35 1015 10 SO 7.4
Oggi h: 13:20 sereno Sereno 31 15 37 1016 10 N 3.7
Oggi h: 12:50 sereno Sereno 30 15 40 1016 10 N 5.5
Oggi h: 12:20 sereno Sereno 30 16 42 1016 10 N 5.5
Oggi h: 11:50 sereno Sereno 29 17 48 1017 10 N 5.5
Oggi h: 11:20 sereno Sereno 29 16 45 1017 10 N 3.7
Oggi h: 10:50 sereno Sereno 30 17 45 1017 10 N 3.7
Oggi h: 10:20 sereno Sereno 28 17 51 1017 10 N 3.7
Oggi h: 09:50 sereno Sereno 28 18 54 1017 10 N 3.7
Oggi h: 09:20 sereno Sereno 26 18 61 1017 10 N 5.5
Oggi h: 08:50 sereno Sereno 25 17 61 1018 10 S 7.4
Oggi h: 08:20 sereno Sereno 24 17 64 1018 10 S/SO 7.4
Oggi h: 07:50 sereno Sereno 22 17 73 1018 10 S/SO 13
Oggi h: 07:20 sereno Sereno 21 16 73 1018 10 S/SO 13
Oggi h: 06:50 sereno Sereno 20 16 77 1018 10 S/SO 13
Oggi h: 06:20 sereno Sereno 20 15 72 1018 10 S/SO 11.1
Oggi h: 05:50 sereno Sereno 19 15 77 1018 10 N 5.5
Oggi h: 05:20 sereno Sereno 19 15 77 1018 10 S 7.4
Oggi h: 04:50 sereno Sereno 20 15 72 1018 10 N 5.5
Oggi h: 04:20 sereno Sereno 20 15 72 1018 10 N 3.7
Oggi h: 03:50 sereno Sereno 20 15 72 1018 10 S/SO 11.1
Oggi h: 03:20 sereno Sereno 20 15 72 1018 10 S/SO 14.8
Oggi h: 02:50 sereno Sereno 21 16 73 1018 10 S/SO 11.1
Oggi h: 02:20 sereno Sereno 21 16 73 1019 10 S/SO 11.1
Oggi h: 01:50 sereno Sereno 21 16 73 1019 10 S/SO 11.1
Oggi h: 01:20 sereno Sereno 21 16 73 1019 10 S/SO 11.1
Oggi h: 00:50 sereno Sereno 21 16 73 1019 10 S/SO 14.8
Oggi h: 00:20 sereno Sereno 22 16 68 1019 10 S/SO 13
Ieri h: 23:50 sereno Sereno 22 17 73 1019 10 S/SO 9.3
Ieri h: 23:20 sereno Sereno 23 17 68 1019 10 N 5.5
Ieri h: 22:50 sereno Sereno 24 16 60 1019 10 N 3.7
Ieri h: 22:20 sereno Sereno 23 16 64 1019 10 N 3.7
Ieri h: 21:50 sereno Sereno 25 16 57 1019 10 N 5.5
Ieri h: 21:20 sereno Sereno 25 16 57 1019 10 E/SE 9.3
Ieri h: 20:50 sereno Sereno 25 16 57 1019 10 E/SE 9.3
Ieri h: 20:20 sereno Sereno 27 16 50 1018 10 E 13
Ieri h: 19:50 sereno Sereno 28 17 51 1018 10 E 13